When you browse on this site, cookies collect data to enhance your experience and personalize the content and advertising you see.
Visit our Privacy Policy to learn more. By continuing to use the site, you agree to this use of cookies and data.
  • In Spain
  • List of Countries
  • For 7 days
  • Water Temperature
  • Satellite Maps
  • Weather Map
  • Weather Widgets
  • user-avatar
    Login

    Hourly Weather Bolgatanga

    Today, 17 November, Saturday

    Time Temperature Precipitation Wind Pressure Humidity
    00:00 +30°C° 0 mm 1 mps 741 mmHg 25%
    01:00 +30°C° 0 mm 1 mps 741 mmHg 26%
    02:00 +29°C° 0 mm 1 mps 741 mmHg 27%
    03:00 +29°C° 0 mm 1 mps 741 mmHg 27%
    04:00 +29°C° 0 mm 1 mps 741 mmHg 29%
    05:00 +28°C° 0 mm 1 mps 742 mmHg 30%
    06:00 +28°C° 0 mm 1 mps 742 mmHg 32%
    07:00 +30°C° 0 mm 2 mps 742 mmHg 33%
    08:00 +32°C° 0 mm 2 mps 742 mmHg 34%
    09:00 +35°C° 0 mm 3 mps 743 mmHg 35%
    10:00 +37°C° 0 mm 3 mps 742 mmHg 32%
    11:00 +39°C° 0 mm 2 mps 742 mmHg 28%
    12:00 +40°C° 0 mm 2 mps 741 mmHg 25%
    13:00 +41°C° 0 mm 1 mps 741 mmHg 23%
    14:00 +41°C° 0 mm 1 mps 740 mmHg 21%
    15:00 +42°C° 0 mm 1 mps 739 mmHg 19%
    16:00 +40°C° 0 mm 1 mps 739 mmHg 21%
    17:00 +37°C° 0 mm 1 mps 740 mmHg 23%
    18:00 +36°C° 0 mm 1 mps 740 mmHg 25%
    19:00 +35°C° 0 mm 1 mps 740 mmHg 27%
    20:00 +34°C° 0 mm 1 mps 740 mmHg 28%
    21:00 +35°C° 0 mm 2 mps 741 mmHg 29%
    22:00 +33°C° 0 mm 1 mps 741 mmHg 30%
    23:00 +33°C° 0 mm 1 mps 741 mmHg 31%

    Tomorrow, 18 November, Sunday

    Time Temperature Precipitation Wind Pressure Humidity
    00:00 +31°C° 0 mm 0 mps 741 mmHg 31%
    01:00 +30°C° 0 mm 0 mps 741 mmHg 33%
    02:00 +30°C° 0 mm 0 mps 740 mmHg 35%
    03:00 +30°C° 0 mm 0 mps 740 mmHg 36%
    04:00 +31°C° 0 mm 1 mps 740 mmHg 39%
    05:00 +31°C° 0 mm 1 mps 741 mmHg 42%
    06:00 +30°C° 0 mm 2 mps 741 mmHg 45%
    07:00 +31°C° 0 mm 3 mps 741 mmHg 45%
    08:00 +34°C° 0 mm 3 mps 742 mmHg 45%
    09:00 +35°C° 0 mm 4 mps 742 mmHg 46%
    10:00 +36°C° 0 mm 3 mps 742 mmHg 42%
    11:00 +38°C° 0 mm 3 mps 741 mmHg 37%
    12:00 +39°C° 0 mm 2 mps 741 mmHg 33%
    13:00 +39°C° 0 mm 2 mps 740 mmHg 31%
    14:00 +40°C° 0 mm 2 mps 740 mmHg 29%
    15:00 +40°C° 0 mm 1 mps 739 mmHg 28%
    16:00 +39°C° 0 mm 1 mps 739 mmHg 29%
    17:00 +37°C° 0 mm 1 mps 739 mmHg 31%
    18:00 +35°C° 0 mm 1 mps 739 mmHg 33%
    19:00 +35°C° 0 mm 1 mps 740 mmHg 34%
    20:00 +34°C° 0 mm 1 mps 740 mmHg 35%
    21:00 +34°C° 0 mm 1 mps 741 mmHg 36%
    22:00 +33°C° 0 mm 1 mps 741 mmHg 36%
    23:00 +33°C° 0 mm 1 mps 741 mmHg 37%

    Day after tomorrow, 19 November, Monday

    Time Temperature Precipitation Wind Pressure Humidity
    00:00 +33°C° 0 mm 1 mps 740 mmHg 38%
    01:00 +32°C° 0 mm 1 mps 740 mmHg 38%
    02:00 +32°C° 0 mm 1 mps 740 mmHg 39%
    03:00 +31°C° 0 mm 1 mps 740 mmHg 40%
    04:00 +31°C° 0 mm 1 mps 740 mmHg 41%
    05:00 +30°C° 0 mm 1 mps 740 mmHg 43%
    06:00 +30°C° 0 mm 1 mps 740 mmHg 44%
    07:00 +32°C° 0 mm 2 mps 741 mmHg 41%
    08:00 +35°C° 0 mm 2 mps 742 mmHg 37%
    09:00 +37°C° 0 mm 3 mps 742 mmHg 34%
    10:00 +39°C° 0 mm 2 mps 742 mmHg 31%
    11:00 +40°C° 0 mm 1 mps 741 mmHg 28%
    12:00 +39°C° 0 mm 0 mps 741 mmHg 25%
    13:00 +38°C° 0 mm 0 mps 740 mmHg 24%
    14:00 +38°C° 0 mm 0 mps 739 mmHg 24%
    15:00 +38°C° 0 mm 0 mps 738 mmHg 23%
    16:00 +40°C° 0 mm 1 mps 738 mmHg 25%
    17:00 +39°C° 0 mm 1 mps 739 mmHg 26%
    18:00 +36°C° 0 mm 1 mps 739 mmHg 28%
    19:00 +36°C° 0 mm 1 mps 739 mmHg 28%
    20:00 +36°C° 0 mm 1 mps 740 mmHg 29%
    21:00 +35°C° 0 mm 1 mps 741 mmHg 30%
    22:00 +36°C° 0 mm 2 mps 741 mmHg 32%
    23:00 +35°C° 0 mm 2 mps 741 mmHg 33%

    20 November, Tuesday

    Time Temperature Precipitation Wind Pressure Humidity
    00:00 +34°C° 0 mm 3 mps 741 mmHg 35%
    01:00 +34°C° 0 mm 3 mps 740 mmHg 36%
    02:00 +33°C° 0 mm 3 mps 740 mmHg 36%
    03:00 +31°C° 0 mm 3 mps 740 mmHg 37%
    04:00 +31°C° 0 mm 3 mps 740 mmHg 34%
    05:00 +30°C° 0 mm 3 mps 740 mmHg 30%
    06:00 +30°C° 0 mm 3 mps 741 mmHg 26%
    07:00 +31°C° 0 mm 3 mps 741 mmHg 23%
    08:00 +34°C° 0 mm 4 mps 742 mmHg 20%
    09:00 +35°C° 0 mm 5 mps 742 mmHg 17%
    10:00 +37°C° 0 mm 4 mps 742 mmHg 16%
    11:00 +40°C° 0 mm 4 mps 741 mmHg 14%
    12:00 +41°C° 0 mm 4 mps 741 mmHg 13%
    13:00 +42°C° 0 mm 4 mps 740 mmHg 12%
    14:00 +42°C° 0 mm 3 mps 739 mmHg 11%
    15:00 +43°C° 0 mm 3 mps 739 mmHg 11%
    16:00 +40°C° 0 mm 3 mps 739 mmHg 11%
    17:00 +38°C° 0 mm 2 mps 739 mmHg 12%
    18:00 +36°C° 0 mm 2 mps 739 mmHg 13%
    19:00 +36°C° 0 mm 2 mps 740 mmHg 13%
    20:00 +35°C° 0 mm 2 mps 740 mmHg 13%
    21:00 +35°C° 0 mm 2 mps 741 mmHg 13%
    22:00 +34°C° 0 mm 2 mps 741 mmHg 14%
    23:00 +32°C° 0 mm 2 mps 741 mmHg 15%

    21 November, Wednesday

    Time Temperature Precipitation Wind Pressure Humidity
    00:00 +31°C° 0 mm 3 mps 741 mmHg 15%
    01:00 +31°C° 0 mm 3 mps 740 mmHg 15%
    02:00 +31°C° 0 mm 3 mps 740 mmHg 16%
    03:00 +30°C° 0 mm 3 mps 740 mmHg 16%
    04:00 +30°C° 0 mm 3 mps 740 mmHg 17%
    05:00 +29°C° 0 mm 3 mps 740 mmHg 18%
    06:00 +29°C° 0 mm 3 mps 741 mmHg 19%
    07:00 +31°C° 0 mm 3 mps 741 mmHg 18%
    08:00 +34°C° 0 mm 4 mps 742 mmHg 16%
    09:00 +36°C° 0 mm 4 mps 742 mmHg 15%
    10:00 +38°C° 0 mm 4 mps 742 mmHg 13%
    11:00 +41°C° 0 mm 4 mps 741 mmHg 11%
    12:00 +42°C° 0 mm 5 mps 741 mmHg 10%
    13:00 +43°C° 0 mm 4 mps 740 mmHg 10%
    14:00 +43°C° 0 mm 4 mps 739 mmHg 10%
    15:00 +43°C° 0 mm 4 mps 738 mmHg 10%
    16:00 +40°C° 0 mm 3 mps 739 mmHg 12%
    17:00 +39°C° 0 mm 2 mps 739 mmHg 14%
    18:00 +37°C° 0 mm 2 mps 739 mmHg 16%
    19:00 +36°C° 0 mm 2 mps 740 mmHg 17%
    20:00 +35°C° 0 mm 2 mps 740 mmHg 17%
    21:00 +34°C° 0 mm 2 mps 741 mmHg 18%
    22:00 +32°C° 0 mm 2 mps 741 mmHg 18%
    23:00 +31°C° 0 mm 2 mps 741 mmHg 17%

    22 November, Thursday

    Time Temperature Precipitation Wind Pressure Humidity
    00:00 +31°C° 0 mm 2 mps 740 mmHg 17%
    01:00 +30°C° 0 mm 2 mps 740 mmHg 16%
    02:00 +30°C° 0 mm 2 mps 740 mmHg 16%
    03:00 +29°C° 0 mm 2 mps 739 mmHg 16%
    04:00 +29°C° 0 mm 2 mps 740 mmHg 17%
    05:00 +28°C° 0 mm 2 mps 740 mmHg 18%
    06:00 +28°C° 0 mm 1 mps 741 mmHg 19%
    07:00 +30°C° 0 mm 2 mps 741 mmHg 21%
    08:00 +32°C° 0 mm 2 mps 742 mmHg 23%
    09:00 +35°C° 0 mm 2 mps 742 mmHg 25%
    10:00 +37°C° 0 mm 2 mps 742 mmHg 23%
    11:00 +39°C° 0 mm 2 mps 741 mmHg 21%
    12:00 +41°C° 0 mm 2 mps 741 mmHg 18%
    13:00 +41°C° 0 mm 2 mps 740 mmHg 17%
    14:00 +41°C° 0 mm 2 mps 739 mmHg 16%
    15:00 +42°C° 0 mm 2 mps 739 mmHg 15%
    16:00 +40°C° 0 mm 2 mps 739 mmHg 15%
    17:00 +38°C° 0 mm 2 mps 739 mmHg 15%
    18:00 +36°C° 0 mm 2 mps 739 mmHg 15%
    19:00 +35°C° 0 mm 2 mps 740 mmHg 14%
    20:00 +34°C° 0 mm 2 mps 740 mmHg 13%
    21:00 +32°C° 0 mm 1 mps 740 mmHg 11%
    22:00 +32°C° 0 mm 1 mps 740 mmHg 11%
    23:00 +31°C° 0 mm 1 mps 740 mmHg 11%
    Show more